• In Russia
  • List of Countries
  • For 7 days
  • Water Temperature
  • Weather Map
  • Weather Widgets
  • user-avatar
    Login

    Hourly Weather Tarin Kowt

    Today, 19 January, Sunday

    Time Temperature Precipitation Wind Pressure Humidity
    00:00 -4°C° 0 mm 2 mps 617 mmHg 47%
    01:00 -4°C° 0 mm 2 mps 617 mmHg 46%
    02:00 -3°C° 0 mm 2 mps 617 mmHg 46%
    03:00 -3°C° 0 mm 2 mps 616 mmHg 46%
    04:00 -3°C° 0 mm 2 mps 616 mmHg 49%
    05:00 -3°C° 0 mm 2 mps 616 mmHg 48%
    06:00 -3°C° 0 mm 2 mps 616 mmHg 48%
    07:00 -3°C° 0 mm 2 mps 615 mmHg 48%
    08:00 -2°C° 0 mm 2 mps 616 mmHg 44%
    09:00 -1°C° 0 mm 2 mps 616 mmHg 40%
    10:00 +1°C° 0 mm 2 mps 616 mmHg 36%
    11:00 +2°C° 0 mm 2 mps 616 mmHg 35%
    12:00 +3°C° 0 mm 2 mps 616 mmHg 34%
    13:00 +4°C° 0 mm 2 mps 615 mmHg 33%
    14:00 +3°C° 0 mm 2 mps 615 mmHg 39%
    15:00 +3°C° 0 mm 2 mps 614 mmHg 44%
    16:00 +2°C° 0 mm 2 mps 614 mmHg 49%
    17:00 +3°C° 0.1 mm 1 mps 614 mmHg 54%
    18:00 +2°C° 0.1 mm 1 mps 614 mmHg 58%
    19:00 +1°C° 0.1 mm 1 mps 614 mmHg 63%
    20:00 +1°C° 0.2 mm 1 mps 614 mmHg 70%
    21:00 0°C° 0.2 mm 1 mps 614 mmHg 78%
    22:00 0°C° 0.2 mm 1 mps 614 mmHg 85%
    23:00 -2°C° 0.1 mm 2 mps 614 mmHg 86%

    Tomorrow, 20 January, Monday

    Time Temperature Precipitation Wind Pressure Humidity
    00:00 -2°C° 0.1 mm 2 mps 614 mmHg 86%
    01:00 -2°C° 0.1 mm 2 mps 614 mmHg 87%
    02:00 -2°C° 0 mm 2 mps 614 mmHg 84%
    03:00 -1°C° 0 mm 2 mps 614 mmHg 82%
    04:00 +1°C° 0 mm 1 mps 613 mmHg 79%
    05:00 +1°C° 0 mm 1 mps 614 mmHg 79%
    06:00 +1°C° 0 mm 1 mps 614 mmHg 79%
    07:00 +1°C° 0 mm 1 mps 614 mmHg 79%
    08:00 0°C° 0.2 mm 1 mps 614 mmHg 85%
    09:00 0°C° 0.2 mm 1 mps 614 mmHg 90%
    10:00 0°C° 0.2 mm 1 mps 614 mmHg 95%
    11:00 +1°C° 0.3 mm 1 mps 613 mmHg 95%
    12:00 +1°C° 0.3 mm 1 mps 612 mmHg 96%
    13:00 +1°C° 0.3 mm 1 mps 612 mmHg 96%
    14:00 +1°C° 0.3 mm 1 mps 612 mmHg 96%
    15:00 +1°C° 0.3 mm 1 mps 612 mmHg 97%
    16:00 +1°C° 0.3 mm 1 mps 612 mmHg 97%
    17:00 0°C° 0.1 mm 0 mps 612 mmHg 96%
    18:00 0°C° 0.1 mm 0 mps 612 mmHg 96%
    19:00 0°C° 0.1 mm 0 mps 613 mmHg 96%
    20:00 0°C° 0.1 mm 0 mps 613 mmHg 96%
    21:00 0°C° 0.1 mm 0 mps 613 mmHg 97%
    22:00 +1°C° 0.1 mm 1 mps 613 mmHg 97%
    23:00 +1°C° 0.2 mm 1 mps 613 mmHg 97%

    Day after tomorrow, 21 January, Tuesday

    Time Temperature Precipitation Wind Pressure Humidity
    00:00 +1°C° 0.2 mm 1 mps 613 mmHg 97%
    01:00 +1°C° 0.2 mm 1 mps 613 mmHg 97%
    02:00 +1°C° 0.1 mm 1 mps 613 mmHg 97%
    03:00 +1°C° 0.1 mm 1 mps 614 mmHg 97%
    04:00 +1°C° 0.1 mm 1 mps 614 mmHg 96%
    05:00 0°C° 0.1 mm 1 mps 614 mmHg 96%
    06:00 0°C° 0.1 mm 1 mps 615 mmHg 95%
    07:00 -1°C° 0.1 mm 0 mps 615 mmHg 95%
    08:00 0°C° 0.1 mm 0 mps 615 mmHg 93%
    09:00 0°C° 0.1 mm 0 mps 616 mmHg 92%
    10:00 0°C° 0.1 mm 0 mps 616 mmHg 90%
    11:00 +2°C° 0.2 mm 1 mps 616 mmHg 91%
    12:00 +2°C° 0.2 mm 1 mps 615 mmHg 92%
    13:00 +2°C° 0.2 mm 1 mps 615 mmHg 93%
    14:00 +2°C° 0.2 mm 1 mps 615 mmHg 93%
    15:00 +2°C° 0.2 mm 1 mps 615 mmHg 93%
    16:00 +2°C° 0.2 mm 1 mps 615 mmHg 92%
    17:00 +1°C° 0.1 mm 1 mps 615 mmHg 92%
    18:00 +1°C° 0.1 mm 1 mps 616 mmHg 92%
    19:00 +1°C° 0.1 mm 1 mps 617 mmHg 91%
    20:00 +1°C° 0.1 mm 1 mps 617 mmHg 92%
    21:00 0°C° 0.1 mm 0 mps 617 mmHg 92%
    22:00 0°C° 0.1 mm 0 mps 617 mmHg 92%
    23:00 -1°C° 0.1 mm 0 mps 618 mmHg 92%

    22 January, Wednesday

    Time Temperature Precipitation Wind Pressure Humidity
    00:00 -1°C° 0.1 mm 0 mps 618 mmHg 93%
    01:00 0°C° 0.1 mm 1 mps 618 mmHg 93%
    02:00 0°C° 0 mm 1 mps 618 mmHg 92%
    03:00 0°C° 0 mm 1 mps 618 mmHg 92%
    04:00 -1°C° 0 mm 1 mps 618 mmHg 91%
    05:00 -1°C° 0 mm 1 mps 618 mmHg 91%
    06:00 -1°C° 0 mm 1 mps 619 mmHg 90%
    07:00 -3°C° 0 mm 2 mps 619 mmHg 89%
    08:00 -2°C° 0 mm 2 mps 619 mmHg 85%
    09:00 -1°C° 0 mm 2 mps 620 mmHg 81%
    10:00 -1°C° 0 mm 2 mps 620 mmHg 77%
    11:00 +1°C° 0 mm 2 mps 620 mmHg 73%
    12:00 +2°C° 0 mm 2 mps 619 mmHg 69%
    13:00 +2°C° 0 mm 2 mps 618 mmHg 65%
    14:00 +2°C° 0 mm 2 mps 618 mmHg 64%
    15:00 +2°C° 0 mm 2 mps 618 mmHg 64%
    16:00 +2°C° 0 mm 2 mps 618 mmHg 63%
    17:00 +2°C° 0 mm 2 mps 618 mmHg 66%
    18:00 +1°C° 0 mm 2 mps 619 mmHg 68%
    19:00 -1°C° 0 mm 2 mps 619 mmHg 71%
    20:00 -1°C° 0 mm 2 mps 619 mmHg 71%
    21:00 -1°C° 0 mm 2 mps 620 mmHg 71%
    22:00 -2°C° 0 mm 2 mps 620 mmHg 72%
    23:00 -2°C° 0 mm 2 mps 619 mmHg 71%

    23 January, Thursday

    Time Temperature Precipitation Wind Pressure Humidity
    00:00 -2°C° 0 mm 2 mps 619 mmHg 70%
    01:00 -3°C° 0 mm 2 mps 619 mmHg 70%
    02:00 -3°C° 0 mm 2 mps 619 mmHg 69%
    03:00 -3°C° 0 mm 2 mps 618 mmHg 68%
    04:00 -3°C° 0 mm 2 mps 618 mmHg 67%
    05:00 -3°C° 0 mm 2 mps 618 mmHg 65%
    06:00 -3°C° 0 mm 2 mps 618 mmHg 63%
    07:00 -3°C° 0 mm 2 mps 619 mmHg 61%
    08:00 -2°C° 0 mm 2 mps 619 mmHg 57%
    09:00 -1°C° 0 mm 2 mps 619 mmHg 52%
    10:00 +1°C° 0 mm 2 mps 619 mmHg 47%
    11:00 +2°C° 0 mm 2 mps 619 mmHg 47%
    12:00 +2°C° 0 mm 2 mps 618 mmHg 46%
    13:00 +3°C° 0 mm 2 mps 618 mmHg 45%
    14:00 +3°C° 0 mm 2 mps 617 mmHg 47%
    15:00 +3°C° 0 mm 2 mps 617 mmHg 48%
    16:00 +3°C° 0 mm 2 mps 617 mmHg 50%
    17:00 +2°C° 0 mm 2 mps 617 mmHg 54%
    18:00 +1°C° 0 mm 2 mps 617 mmHg 57%
    19:00 +1°C° 0 mm 2 mps 617 mmHg 60%
    20:00 +1°C° 0 mm 2 mps 617 mmHg 61%
    21:00 -1°C° 0 mm 2 mps 617 mmHg 61%
    22:00 -1°C° 0 mm 2 mps 617 mmHg 61%
    23:00 -1°C° 0 mm 2 mps 616 mmHg 62%

    24 January, Friday

    Time Temperature Precipitation Wind Pressure Humidity
    00:00 -1°C° 0 mm 2 mps 616 mmHg 63%
    01:00 -1°C° 0 mm 2 mps 615 mmHg 63%
    02:00 -1°C° 0 mm 2 mps 615 mmHg 63%
    03:00 -1°C° 0 mm 2 mps 615 mmHg 62%
    04:00 -1°C° 0 mm 2 mps 614 mmHg 61%
    05:00 -1°C° 0.3 mm 2 mps 615 mmHg 67%
    06:00 -1°C° 0.3 mm 2 mps 615 mmHg 73%
    07:00 -1°C° 0.3 mm 2 mps 615 mmHg 78%
    08:00 -1°C° 1.5 mm 2 mps 615 mmHg 85%
    09:00 -2°C° 1.5 mm 2 mps 615 mmHg 91%
    10:00 0°C° 1.5 mm 1 mps 615 mmHg 98%
    11:00 -1°C° 0.4 mm 2 mps 615 mmHg 97%
    12:00 +1°C° 0.4 mm 2 mps 615 mmHg 96%
    13:00 0°C° 0.4 mm 3 mps 614 mmHg 95%
    14:00 +1°C° 0 mm 2 mps 614 mmHg 94%
    15:00 +1°C° 0 mm 2 mps 614 mmHg 94%
    16:00 +1°C° 0 mm 2 mps 614 mmHg 93%
    17:00 +1°C° 0 mm 2 mps 615 mmHg 93%
    18:00 +2°C° 0 mm 1 mps 615 mmHg 93%
    19:00 +2°C° 0 mm 1 mps 615 mmHg 93%
    20:00 +2°C° 0 mm 1 mps 615 mmHg 93%
    21:00 +1°C° 0 mm 1 mps 616 mmHg 93%
    22:00 +1°C° 0 mm 1 mps 616 mmHg 93%
    23:00 +1°C° 0 mm 1 mps 615 mmHg 93%
    Show more